Amarillo, TX

6:51 PM CDT on July 18, 2019 (GMT -0500)
Amarillo International

Weather History for KAMA - May, 2019

Change the Weather History Date:

Tuesday, May 14, 2019

  Actual Average Record
Temperature  
Mean Temperature 66 °F 65 °F  
Max Temperature 82 °F 79 °F 99 °F (1996)
Min Temperature 50 °F 51 °F 33 °F (1953)
Degree Days  
Heating Degree Days 0 3  
Month to date heating degree days 89 55  
Since 1 July heating degree days 4072 4143  
Cooling Degree Days 1 3  
Month to date cooling degree days 8 29  
Year to date cooling degree days 24 50  
Growing Degree Days 16 (Base 50)    
Moisture  
Dew Point 46 °F    
Average Humidity 52    
Maximum Humidity 80    
Minimum Humidity 24    
Precipitation  
Precipitation 0.00 in 0.07 in 2.59 in (1900)
Month to date precipitation 1.35 0.80  
Year to date precipitation 5.44 4.87  
Snow  
Snow 0.00 in 0.00 in T in (2008)
Month to date snowfall 0.0 0.2  
Since 1 July snowfall 8.1 17.8  
Snow Depth 0.00 in    
Sea Level Pressure  
Sea Level Pressure 29.88 in    
Wind  
Wind Speed 11 mph (SSW)    
Max Wind Speed 17 mph    
Max Gust Speed 23 mph    
Visibility 10 miles    
Events      
T = Trace of Precipitation, MM = Missing Value Source: NWS Daily Summary

Daily Weather History Graph

Daily Weather History Graph

Search for Another Location

Airport or City:

Astronomy

May. 14, 2019 Rise Set
Actual Time 6:43 AM CDT 8:43 PM CDT
Civil Twilight 6:15 AM CDT 9:11 PM CDT
Nautical Twilight 5:41 AM CDT 9:45 PM CDT
Astronomical Twilight 5:04 AM CDT 10:22 PM CDT
Moon 4:20 PM CDT (5/14) 4:23 AM CDT (5/14)
Length of Visible Light 14h 55m
Length of Day
13h 59m
Waxing Gibbous, 79% of the Moon is Illuminated
May 14
Waxing Gibbous
May 18
Full
May 26
Last Quarter
Jun 3
New
Jun 10
First Quarter

Hourly Weather History & Observations

Time (CDT) Temp. Dew Point Humidity Pressure Visibility Wind Dir Wind Speed Gust Speed Precip Events Conditions
12:53 AM 57.9 °F 48.9 °F 72% 29.86 in 10.0 mi SSW 13.8 mph - N/A   Clear
1:53 AM 57.9 °F 46.9 °F 67% 29.85 in 10.0 mi SW 15.0 mph - N/A   Clear
2:53 AM 55.9 °F 46.9 °F 72% 29.86 in 10.0 mi WSW 10.4 mph - N/A   Partly Cloudy
3:53 AM 55.0 °F 46.0 °F 72% 29.88 in 10.0 mi SW 10.4 mph - N/A   Clear
4:53 AM 55.9 °F 45.0 °F 67% 29.88 in 10.0 mi SW 12.7 mph - N/A   Mostly Cloudy
5:53 AM 51.1 °F 44.1 °F 77% 29.89 in 10.0 mi SSW 9.2 mph - N/A   Scattered Clouds
6:53 AM 50.0 °F 44.1 °F 80% 29.91 in 10.0 mi SW 8.1 mph - N/A   Partly Cloudy
7:53 AM 57.0 °F 46.9 °F 69% 29.90 in 10.0 mi SW 9.2 mph - N/A   Partly Cloudy
8:53 AM 64.9 °F 46.9 °F 52% 29.91 in 10.0 mi SW 10.4 mph - N/A   Clear
9:53 AM 68.0 °F 48.0 °F 49% 29.92 in 10.0 mi SW 13.8 mph - N/A   Clear
10:53 AM 72.0 °F 48.0 °F 43% 29.91 in 10.0 mi SW 16.1 mph - N/A   Clear
11:53 AM 75.0 °F 50.0 °F 41% 29.91 in 10.0 mi SW 13.8 mph - N/A   Clear
12:53 PM 77.0 °F 48.0 °F 36% 29.90 in 10.0 mi SSW 9.2 mph 19.6 mph N/A   Clear
1:53 PM 79.0 °F 46.0 °F 31% 29.88 in 10.0 mi SW 11.5 mph - N/A   Clear
2:53 PM 81.0 °F 46.9 °F 30% 29.87 in 9.0 mi SSW 10.4 mph - N/A   Clear
3:53 PM 82.0 °F 46.9 °F 29% 29.85 in 10.0 mi South 10.4 mph - N/A   Clear
4:53 PM 82.0 °F 43.0 °F 25% 29.83 in 10.0 mi Variable 6.9 mph - N/A   Clear
5:53 PM 82.0 °F 45.0 °F 27% 29.84 in 10.0 mi SSW 12.7 mph - N/A   Clear
6:53 PM 80.1 °F 44.1 °F 28% 29.85 in 10.0 mi South 15.0 mph - N/A   Clear
7:53 PM 77.0 °F 45.0 °F 32% 29.85 in 10.0 mi South 11.5 mph - N/A   Clear
8:53 PM 71.1 °F 46.0 °F 41% 29.87 in 10.0 mi South 11.5 mph - N/A   Clear
9:53 PM 69.1 °F 46.0 °F 44% 29.88 in 10.0 mi South 9.2 mph - N/A   Clear
10:53 PM 63.0 °F 48.0 °F 58% 29.90 in 10.0 mi South 9.2 mph - N/A   Clear
11:53 PM 62.1 °F 46.9 °F 58% 29.91 in 10.0 mi South 9.2 mph - N/A   Clear